User: anonymous   Login
Location: Unspecified
(0.0000°N, 0.0000°E)
Time: 14:56:18
(UTC+00:00)
Language:

DMSP 5D-3 F17 - Orbit

View from above orbital plane
View from above orbital plane
View from above satellite
View from above satellite

Ground track
Ground track

The orbit data is extracted from the following two-line orbital elements,

1 29522U 06050A   19145.94038046 -.00000092 +00000-0 -25412-4 0  9996
2 29522 098.8215 162.7476 0009574 196.1678 163.9191 14.14006377647809
Epoch (UTC): 25 May 2019 22:34:08
Eccentricity: 0.0009574
inclination: 98.8215°
perigee height: 839 km
apogee height: 852 km
right ascension of ascending node: 162.7476°
argument of perigee: 196.1678°
revolutions per day: 14.14006377
mean anomaly at epoch: 163.9191°
orbit number at epoch: 64780

The dashed part of the orbit path shows where the satellite is in the earth's shadow,  

DLR